Weather in Bartın

Turkey     41°37′57″N   32°19′58″E
temp.,
°C
wind,
m/s
gust,
m/s
humid.,
%
clouds,
%
prec.,
mm/h
press.,
hPa
HPBL,
m
5 march, fri
fri500:00+7s44680 0.0 1020114
03:00+7sse55600 0.0 1019108
06:00+8s56550 0.0 101998
09:00+8sse67520 0.0 1018101
12:00+12s45460 0.0 101889
15:00+11w45490 0.0 101788
18:00+11ssw22557 0.0 101722
21:00+11s34493 0.0 101822
6 march, sat
sat600:00+11sse56525 0.0 101835
03:00+10sse56563 0.0 101941
06:00+10s565691 0.0 101847
09:00+10ssw556195 0.0 101965
12:00+12sw565699 0.0 1019194
15:00+10wsw6873100 0.1 1019209
18:00+7n81089100 1.9 1021600
21:00+6nne6791100 5.1 1024487
7 march, sun
sun700:00+5ne7893100 4.1 1026582
03:00+5ne7892100 5.6 1027594
06:00+4ne788799 0.3 1027678
09:00+5ne786997 0.3 10281027
12:00+5ne666088 0.0 1027995
15:00+5nne656046 0.0 1026940
18:00+5nne44570 0.0 1024971
21:00+4ne22640 0.0 1025737
8 march, mon
mon800:00+3sse21680 0.0 1023392
03:00+3sse32710 0.0 1022282
06:00+3s22680 0.0 1021256
09:00+3sse22630 0.0 1020274
12:00+4wnw22600 0.0 1019310
15:00+4nnw21550 0.0 1017256
18:00+4nne11510 0.0 1017206
21:00+5sse11500 0.0 1018158
9 march, tue
tue900:00+5sse33570 0.0 1018157
03:00+5s44611 0.0 1018158
06:00+5s445882 0.0 1018146
09:00+6sse335291 0.0 1019115
12:00+8nne1143100 0.0 1019177
15:00+8ne555398 0.0 1019288
18:00+8ne785849 0.0 1019392
21:00+8ene896474 0.0 1020419